User: anonymous
Location: Oshawa
(43.9000°N, 78.8670°W)
Time: 12:16:49
(UTC-04:00)
Language:

Cosmos 1408 Rocket - Orbit

View from above orbital plane
View from above orbital plane
View from above satellite
View from above satellite

Ground track
Ground track

The orbit data is extracted from the following two-line orbital elements,

1 13553U 82092B   14274.50261534  .00000702  00000-0  81884-4 0   311
2 13553 082.5671 075.9152 0023022 076.6448 340.0699 14.83603320730260
Epoch (UTC): 01 October 2014 12:03:45
Eccentricity: 0.0023022
inclination: 82.5671°
perigee height: 602 km
apogee height: 634 km
right ascension of ascending node: 75.9152°
argument of perigee: 76.6448°
revolutions per day: 14.83603320
mean anomaly at epoch: 340.0699°
orbit number at epoch: 73026

The dashed part of the orbit path shows where the satellite is in the earth's shadow,  

DLR